Home   Weather   Bentonville   Past weeks

Flag for USA Past Weather in Bentonville, Arkansas, USA — Yesterday and Last 2 Weeks

63 °F


Feels Like: 63 °F
Forecast: 59 / 71 °F
Wind: 8 mph from South

Location: Bentonville Weather Observing Station

Current Time: Oct 26, 2016 at 1:01:00 AM

Latest Report: Oct 26, 2016 at 12:15 AM

Visibility: 10 mi

Pressure: 30.16 "Hg

Humidity: 64%

Dew Point: 50 °F

Location of BentonvilleLocation

Past Weather in Bentonville — Graph


Bentonville Temperature Yesterday

Maximum temperature yesterday: 77 °F (at 2:35 PM)
Minimum temperature yesterday: 55 °F (at 5:15 AM)
Average temperature yesterday: 65 °F

High & Low Weather Summary for the Past Weeks

High86 °F (Oct 19, 3:15 PM)88% (Oct 12, 9:15 AM)30.32 "Hg (Oct 12, 9:15 AM)
Low41 °F (Oct 21, 6:55 AM)30% (Oct 11, 2:55 PM)29.65 "Hg (Oct 17, 6:15 PM)
Average65 °F65%30.08 "Hg
* Reported Oct 10 11:15 PM — Oct 25 11:55 PM, Bentonville, Weather by CustomWeather, © 2016

Note: Actual official high and low records may vary slightly from our data, if they occured in-between our weather recording intervals... More about our weather records


Bentonville Weather History for the Previous 24 Hours

Scroll right to see more
Time TempWeatherWind HumidityBarometerVisibility
11:55 PM
Tue, Oct 25
63 °FClear.8 mph64%30.16 "Hg10 mi
11:35 PM63 °FClear.7 mph64%30.16 "Hg10 mi
11:15 PM64 °FClear.6 mph60%30.17 "Hg10 mi
10:55 PM64 °FClear.7 mph60%30.17 "Hg10 mi
10:35 PM64 °FClear.6 mph60%30.17 "Hg10 mi
10:15 PM64 °FClear.8 mph60%30.16 "Hg10 mi
9:55 PM64 °FClear.8 mph60%30.16 "Hg10 mi
9:35 PM64 °FClear.7 mph60%30.16 "Hg10 mi
9:15 PM66 °FClear.8 mph56%30.15 "Hg10 mi
8:55 PM66 °FClear.9 mph56%30.15 "Hg10 mi
8:15 PM66 °FClear.7 mph60%30.15 "Hg10 mi
7:55 PM66 °FClear.6 mph60%30.15 "Hg10 mi
7:35 PM66 °FClear.6 mph60%30.15 "Hg10 mi
7:15 PM68 °FClear.5 mph56%30.14 "Hg10 mi
6:55 PM68 °FClear.6 mph56%30.14 "Hg10 mi
6:35 PM70 °FClear.6 mph57%30.13 "Hg10 mi
5:55 PM72 °FSunny.5 mph57%30.13 "Hg10 mi
5:35 PM73 °FSunny.7 mph53%30.13 "Hg10 mi
5:15 PM73 °FSunny.5 mph53%30.14 "Hg10 mi
4:55 PM75 °FSunny.8 mph50%30.14 "Hg10 mi
4:35 PM75 °FPassing clouds.9 mph50%30.15 "Hg10 mi
4:15 PM75 °FPassing clouds.9 mph50%30.15 "Hg10 mi
3:55 PM77 °FPassing clouds.9 mph47%30.15 "Hg10 mi
3:35 PM77 °FPartly sunny.8 mph47%30.16 "Hg10 mi
3:15 PM77 °FScattered clouds.9 mph47%30.16 "Hg10 mi
2:55 PM77 °FPartly sunny.10 mph51%30.16 "Hg10 mi
2:35 PM77 °FScattered clouds.8 mph51%30.17 "Hg10 mi
2:15 PM75 °FPassing clouds.7 mph50%30.17 "Hg10 mi
1:55 PM75 °FScattered clouds.8 mph50%30.18 "Hg10 mi
1:35 PM75 °FPartly sunny.10 mph54%30.20 "Hg10 mi
1:15 PM75 °FScattered clouds.8 mph54%30.21 "Hg10 mi
12:55 PM75 °FSunny.10 mph54%30.22 "Hg10 mi
12:35 PM73 °FSunny.5 mph57%30.23 "Hg10 mi
12:15 PM73 °FSunny.8 mph57%30.24 "Hg10 mi
11:55 AM73 °FSunny.7 mph57%30.25 "Hg10 mi
11:35 AM72 °FSunny.5 mph61%30.25 "Hg10 mi
11:15 AM72 °FSunny.5 mph61%30.26 "Hg10 mi
10:55 AM70 °FSunny.6 mph64%30.26 "Hg10 mi
10:35 AM68 °FSunny.6 mph64%30.27 "Hg10 mi
10:15 AM66 °FSunny.6 mph68%30.27 "Hg10 mi
9:55 AM64 °FSunny.5 mph68%30.27 "Hg10 mi
9:35 AM64 °FSunny.7 mph68%30.27 "Hg10 mi
9:15 AM63 °FSunny.5 mph73%30.27 "Hg10 mi
8:55 AM61 °FSunny.5 mph72%30.27 "Hg10 mi
8:35 AM59 °FSunny.5 mph77%30.26 "Hg10 mi
8:15 AM57 °FSunny.6 mph77%30.25 "Hg10 mi
7:55 AM57 °FSunny.5 mph77%30.25 "Hg10 mi
7:35 AM55 °FSunny.No wind77%30.25 "Hg10 mi
7:15 AM55 °FClear.No wind77%30.25 "Hg10 mi
6:55 AM55 °FClear.No wind77%30.25 "Hg10 mi
6:35 AM55 °FClear.No wind77%30.25 "Hg10 mi
6:15 AM55 °FClear.No wind77%30.24 "Hg10 mi
5:55 AM55 °FClear.No wind77%30.24 "Hg10 mi
5:35 AM55 °FClear.No wind77%30.24 "Hg10 mi
5:15 AM55 °FClear.No wind77%30.23 "Hg10 mi
4:55 AM57 °FClear.No wind72%30.24 "Hg10 mi
4:35 AM57 °FClear.No wind72%30.24 "Hg10 mi
4:15 AM57 °FClear.No wind72%30.24 "Hg10 mi
3:55 AM57 °FClear.No wind72%30.24 "Hg10 mi
3:35 AM59 °FClear.No wind68%30.23 "Hg10 mi
3:15 AM59 °FClear.5 mph72%30.22 "Hg10 mi
2:55 AM61 °FClear.7 mph68%30.23 "Hg10 mi
2:35 AM61 °FClear.7 mph68%30.23 "Hg10 mi
2:15 AM61 °FClear.8 mph63%30.23 "Hg10 mi
1:55 AM59 °FClear.5 mph68%30.24 "Hg10 mi
1:35 AM61 °FClear.5 mph63%30.25 "Hg10 mi
1:15 AM61 °FClear.3 mph68%30.25 "Hg10 mi
Weather by CustomWeather, © 2016

See weather overviewHow to use our weather pages